Track COSMOS 198 now! 10-day predictions COSMOS 198 is classified as:
1 03081U 67127A 21023.78381289 -.00000106 00000-0 -12542-4 0 9996 2 03081 65.1416 36.6059 0013180 64.9500 295.2933 13.93220596699066